ULMM

Murmansk Airport

Airport
ICAO code
ULMM
Summary
ICAO Region
EUR
ICAO Territory
Location

Murmashi, Murmansk,

Coordinates
68° 47' 11" N , 32° 44' 35" E
Metar
ULMM 220000Z 14003MPS 9999 -SHSN BKN020CB M06/M08 Q1001 R13/490140 NOSIG RMK QFE744

Description

Murmansk Airport is the international airport of Murmansk, Russia. It is located near the town of Murmashi in Murmansk's southern suburbs, 24 km outside the city centre.

Climatology

Subarctic climate (Köppen climate classification Dfc) - long, usually very cold winters, and short, cool to mild summers.

Runways

Designator Length Width Surface Rops
14/32 2500 45 CON Yes/Yes

Airport map

Aerial View

SKYbrary Partners:

Safety knowledge contributed by: